Weather History for New Haven, CT

Change the Weather History Date:

Sunday, October 6, 2013

  Actual Average Record
Temperature  
Mean Temperature 64 °F -  
Max Temperature 66 °F 64 °F 89 °F (1990)
Min Temperature 62 °F 47 °F 21 °F (2005)
Degree Days  
Heating Degree Days 1    
Growing Degree Days 14 (Base 50)    
Moisture  
Dew Point 61 °F    
Average Humidity 90    
Maximum Humidity 96    
Minimum Humidity 80    
Precipitation  
Precipitation 0.06 in - - ()
Sea Level Pressure  
Sea Level Pressure 30.11 in    
Wind  
Wind Speed 7 mph (ESE)    
Max Wind Speed 13 mph    
Max Gust Speed 22 mph    
Visibility 7 miles    
Events Rain    
Averages and records for this station are not official NWS values.
T = Trace of Precipitation, MM = Missing Value Source: NWS Daily Summary

Daily Weather History Graph

Daily Weather History Graph

Search for Another Location

Airport:

Trip Planner

Search our weather history database for the weather conditions in past years. The results will help you decide how hot, cold, wet, or windy it might be!

Date:

Astronomy

Oct. 06, 2013 Rise Set
Actual Time 6:53 AM EDT 6:24 PM EDT
Civil Twilight 6:26 AM EDT 6:52 PM EDT
Nautical Twilight 5:54 AM EDT 7:24 PM EDT
Astronomical Twilight 5:22 AM EDT 7:56 PM EDT
Moon 8:36 AM EDT (10/6) 7:20 PM EDT (10/6)
Length of Visible Light 12h 26m
Length of Day
11h 31m
Waxing Crescent, 3% of the Moon is Illuminated
Oct 6
Waxing Crescent
Oct 11
First Quarter
Oct 18
Full
Oct 26
Last Quarter
Nov 3
New

Hourly Weather History & Observations

Time (EDT) Temp. Dew Point Humidity Pressure Visibility Wind Dir Wind Speed Gust Speed Precip Events Conditions
12:27 AM 66.2 °F 62.6 °F 88% 30.10 in 10.0 mi SSE 5.8 mph - N/A   Overcast
12:53 AM 66.0 °F 62.1 °F 87% 30.10 in 10.0 mi SE 5.8 mph - N/A   Overcast
1:53 AM 66.0 °F 62.1 °F 87% 30.11 in 10.0 mi SE 5.8 mph - N/A   Overcast
2:00 AM 66.2 °F 62.6 °F 88% 30.11 in 10.0 mi South 4.6 mph - N/A   Overcast
2:53 AM 64.9 °F 62.1 °F 90% 30.09 in 8.0 mi SE 5.8 mph - 0.03 in Rain Light Rain
3:02 AM 64.4 °F 62.6 °F 94% 30.09 in 9.0 mi SSE 4.6 mph - 0.00 in Rain Light Rain
3:53 AM 64.9 °F 62.1 °F 90% 30.08 in 10.0 mi ESE 5.8 mph - 0.00 in   Overcast
4:09 AM 64.4 °F 62.6 °F 94% 30.09 in 10.0 mi SE 5.8 mph - N/A   Overcast
4:32 AM 64.4 °F 62.6 °F 94% 30.09 in 10.0 mi ESE 3.5 mph - N/A   Overcast
4:53 AM 64.9 °F 62.1 °F 90% 30.09 in 10.0 mi SE 4.6 mph - N/A   Overcast
5:53 AM 64.9 °F 62.1 °F 90% 30.10 in 10.0 mi SE 3.5 mph - N/A   Overcast
6:53 AM 64.9 °F 62.1 °F 90% 30.10 in 10.0 mi ESE 6.9 mph - N/A   Overcast
7:53 AM 64.9 °F 61.0 °F 87% 30.12 in 10.0 mi East 8.1 mph - N/A   Overcast
8:53 AM 64.0 °F 60.1 °F 87% 30.13 in 10.0 mi East 9.2 mph - N/A   Overcast
9:44 AM 64.4 °F 59.0 °F 83% 30.14 in 10.0 mi East 10.4 mph 16.1 mph 0.03 in   Overcast
9:53 AM 64.0 °F 59.0 °F 84% 30.14 in 10.0 mi East 12.7 mph 21.9 mph 0.03 in   Overcast
10:53 AM 63.0 °F 60.1 °F 90% 30.16 in 10.0 mi East 10.4 mph - 0.00 in   Overcast
11:53 AM 63.0 °F 59.0 °F 87% 30.15 in 10.0 mi East 10.4 mph - N/A   Overcast
12:53 PM 64.0 °F 57.9 °F 80% 30.14 in 10.0 mi East 6.9 mph - N/A   Overcast
1:53 PM 64.0 °F 59.0 °F 84% 30.13 in 10.0 mi East 10.4 mph 17.3 mph N/A   Overcast
2:16 PM 62.6 °F 59.0 °F 88% 30.12 in 2.5 mi East 8.1 mph - N/A   Overcast
2:43 PM 62.6 °F 59.0 °F 88% 30.12 in 2.5 mi ENE 6.9 mph - N/A   Overcast
2:53 PM 62.1 °F 60.1 °F 93% 30.12 in 2.5 mi Variable 6.9 mph - N/A   Overcast
3:19 PM 62.6 °F 60.8 °F 94% 30.12 in 1.5 mi ENE 5.8 mph - N/A   Overcast
3:53 PM 62.1 °F 60.1 °F 93% 30.12 in 1.5 mi East 8.1 mph - N/A   Overcast
4:09 PM 62.6 °F 60.8 °F 94% 30.12 in 2.0 mi East 6.9 mph - N/A   Overcast
4:53 PM 62.1 °F 60.1 °F 93% 30.11 in 1.5 mi East 9.2 mph - N/A   Overcast
5:30 PM 62.6 °F 60.8 °F 94% 30.12 in 1.0 mi East 8.1 mph - N/A   Overcast
5:53 PM 62.1 °F 61.0 °F 96% 30.12 in 1.0 mi East 8.1 mph - N/A   Overcast
6:53 PM 63.0 °F 61.0 °F 93% 30.12 in 2.5 mi East 9.2 mph - N/A   Overcast
7:53 PM 63.0 °F 61.0 °F 93% 30.12 in 3.0 mi East 11.5 mph - N/A   Overcast
8:53 PM 62.1 °F 61.0 °F 96% 30.11 in 3.0 mi East 10.4 mph - N/A   Overcast
9:53 PM 62.1 °F 60.1 °F 93% 30.10 in 5.0 mi East 9.2 mph - N/A   Overcast
10:00 PM 62.6 °F 60.8 °F 94% 30.10 in 10.0 mi East 8.1 mph - N/A   Overcast
10:41 PM 62.6 °F 60.8 °F 94% 30.09 in 10.0 mi East 6.9 mph - N/A   Overcast
10:53 PM 63.0 °F 61.0 °F 93% 30.09 in 10.0 mi East 9.2 mph - N/A   Overcast
11:53 PM 63.0 °F 61.0 °F 93% 30.08 in 10.0 mi ENE 5.8 mph - N/A   Overcast